Voltar ao catálogo

COSMOS 1275 DEB

AtivoPO
NORAD 13804·DEBRIS·🇷🇺 Russia

Lançado Jun 4, 1981 de Plesetsk Cosmodrome

Loading…

Próximas Passagens (próximas 24 horas)

TLE

AtualizadoSource: Space-Track

Época: Sep 14, 2026, 22:38 UTC

1 13804U 81053GY  26257.94308252  .00004095  00000-0  13618-2 0  9997
2 13804  82.9438 159.1102 0037258 103.9638  24.0864 14.37118371233699

Acompanhe COSMOS 1275 DEB em tempo real com AllMySat

Download on the App Store